User: anonymous   Login
Location: *
(51.5000°N, 0.1100°W)
Time: 00:41:09
(UTC+00:00)
Language:

CFOSAT - Orbit

View from above orbital plane
View from above orbital plane
View from above satellite
View from above satellite

Ground track
Ground track

The orbit data is extracted from the following two-line orbital elements,

1 43662U 18083A   24282.83922185  .00015710  00000-0  80542-3 0  9993
2 43662  97.3749 294.2898 0001954 235.1917 124.9133 15.16642185329120
Epoch (UTC): 08 October 2024 20:08:28
Eccentricity: 0.0001954
inclination: 97.3749°
perigee height: 514 km
apogee height: 517 km
right ascension of ascending node: 294.2898°
argument of perigee: 235.1917°
revolutions per day: 15.16642185
mean anomaly at epoch: 124.9133°
orbit number at epoch: 32912

The dashed part of the orbit path shows where the satellite is in the earth's shadow,  

DLR